TimePDT,TemperatureF,Dew PointF,Humidity,Sea Level PressureIn,VisibilityMPH,Wind Direction,Wind SpeedMPH,Gust SpeedMPH,PrecipitationIn,Events,Conditions,WindDirDegrees,DateUTC
12:58 AM,41.7,31.5,67,30.24,10.0,SW,6.9,-,N/A,,Clear,230,2013-03-11 07:58:00
1:58 AM,41.5,30.9,66,30.24,10.0,WSW,8.1,-,N/A,,Clear,240,2013-03-11 08:58:00
2:58 AM,39.4,29.7,68,30.23,10.0,West,4.6,-,N/A,,Clear,280,2013-03-11 09:58:00
3:58 AM,39.6,29.7,68,30.22,10.0,Variable,2.3,-,N/A,,Clear,0,2013-03-11 10:58:00
4:58 AM,38.3,28.9,69,30.21,10.0,SW,8.1,-,N/A,,Clear,230,2013-03-11 11:58:00
5:58 AM,36.1,28.2,73,30.22,10.0,SW,3.5,-,N/A,,Clear,230,2013-03-11 12:58:00
6:21 AM,35.6,26.6,70,30.23,10.0,West,5.8,-,N/A,,Clear,260,2013-03-11 13:21:00
6:30 AM,35.6,26.6,70,30.24,10.0,West,4.6,-,N/A,,Clear,260,2013-03-11 13:30:00
6:58 AM,37.6,28.2,69,30.24,10.0,SW,3.5,-,0.00,,Clear,230,2013-03-11 13:58:00
7:58 AM,37.4,29.3,73,30.25,10.0,WSW,9.2,-,N/A,,Clear,250,2013-03-11 14:58:00
8:58 AM,45.9,28.0,50,30.26,10.0,WNW,3.5,-,N/A,,Clear,300,2013-03-11 15:58:00
9:58 AM,50.0,28.0,43,30.26,10.0,WNW,1.2,-,N/A,,Clear,300,2013-03-11 16:58:00
10:58 AM,55.6,29.3,37,30.25,10.0,Calm,Calm,-,N/A,,Clear,0,2013-03-11 17:58:00
11:58 AM,59.7,23.7,25,30.24,10.0,Calm,Calm,-,N/A,,Clear,0,2013-03-11 18:58:00
12:58 PM,62.1,20.8,21,30.22,10.0,Calm,Calm,-,N/A,,Clear,0,2013-03-11 19:58:00
1:04 PM,62.6,21.2,20,30.21,10.0,Calm,Calm,-,N/A,,Partly Cloudy,0,2013-03-11 20:04:00
1:58 PM,64.8,14.9,15,30.17,10.0,NE,1.2,-,N/A,,Clear,40,2013-03-11 20:58:00
2:58 PM,66.2,11.7,12,30.15,10.0,Calm,Calm,-,N/A,,Clear,0,2013-03-11 21:58:00
3:58 PM,68.0,13.8,12,30.13,10.0,East,2.3,-,N/A,,Clear,80,2013-03-11 22:58:00
4:58 PM,68.4,13.8,12,30.11,10.0,Calm,Calm,-,N/A,,Clear,0,2013-03-11 23:58:00
5:58 PM,68.0,14.5,13,30.10,10.0,Calm,Calm,-,N/A,,Clear,0,2013-03-12 00:58:00
6:58 PM,65.7,25.2,22,30.10,10.0,ESE,3.5,-,N/A,,Clear,110,2013-03-12 01:58:00
7:58 PM,59.7,27.5,29,30.11,10.0,South,4.6,-,N/A,,Clear,190,2013-03-12 02:58:00
8:58 PM,54.3,28.0,36,30.13,10.0,WSW,8.1,-,N/A,,Clear,250,2013-03-12 03:58:00
9:58 PM,51.6,29.3,42,30.14,10.0,WSW,8.1,-,N/A,,Clear,240,2013-03-12 04:58:00
10:58 PM,50.2,28.8,44,30.14,10.0,WSW,8.1,-,N/A,,Clear,250,2013-03-12 05:58:00
11:58 PM,47.1,28.0,48,30.15,10.0,West,9.2,-,N/A,,Clear,260,2013-03-12 06:58:00